| time (UTC) | temp F | wind direction | speed MPH | gust MPH | rain 1hr in | rain 24hr in | rain mn in | humidity % | barometer mb |
| 20260503173517 | 65 | 224 | 6.0 | 12.0 | 0.00 | 0.00 | 0.00 | 38 | 1005.6 |
| 20260503172514 | 65 | 230 | 6.0 | 17.0 | 0.00 | 0.00 | 0.00 | 41 | 1005.7 |
| 20260503171506 | 64 | 218 | 7.0 | 12.0 | 0.00 | 0.00 | 0.00 | 40 | 1005.8 |
| 20260503170457 | 64 | 202 | 6.0 | 12.0 | 0.00 | 0.00 | 0.00 | 44 | 1006.0 |
| 20260503150455 | 58 | 240 | 5.0 | 10.0 | 0.00 | 0.00 | 0.00 | 52 | 1007.6 |
| 20260503130534 | 53 | 240 | 4.0 | 9.0 | 0.00 | 0.00 | 0.00 | 53 | 1008.3 |
| 20260503110457 | 50 | 246 | 3.0 | 6.0 | 0.00 | 0.00 | 0.00 | 53 | 1008.7 |
| 20260503081505 | 50 | 228 | 3.0 | 6.0 | 0.00 | 0.00 | 0.00 | 48 | 1010.1 |
| 20260503080456 | 50 | 220 | 3.0 | 7.0 | 0.00 | 0.00 | 0.00 | 48 | 1010.1 |
| 20260503072515 | 50 | 215 | 3.0 | 7.0 | 0.00 | 0.00 | 0.00 | 49 | 1010.2 |
| 20260503071507 | 50 | 213 | 3.0 | 7.0 | 0.00 | 0.00 | 0.00 | 50 | 1010.2 |
| 20260503070458 | 50 | 206 | 4.0 | 7.0 | 0.00 | 0.00 | 0.00 | 50 | 1010.4 |
| 20260503054446 | 50 | 206 | 3.0 | 7.0 | 0.00 | 0.00 | 0.00 | 51 | 1011.2 |
| 20260503053446 | 50 | 203 | 3.0 | 5.0 | 0.00 | 0.00 | 0.00 | 50 | 1011.3 |
| 20260503052517 | 50 | 195 | 3.0 | 6.0 | 0.00 | 0.00 | 0.00 | 50 | 1011.4 |
| 20260503051508 | 50 | 205 | 2.0 | 6.0 | 0.00 | 0.00 | 0.00 | 51 | 1011.5 |
| 20260503050456 | 50 | 207 | 2.0 | 5.0 | 0.00 | 0.00 | 0.00 | 52 | 1011.6 |
| 20260503045447 | 50 | 215 | 2.0 | 3.0 | 0.00 | 0.00 | 0.00 | 52 | 1011.7 |
| 20260503044508 | 50 | 216 | 2.0 | 4.0 | 0.00 | 0.00 | 0.00 | 51 | 1011.7 |
| 20260503043447 | 49 | 211 | 3.0 | 5.0 | 0.00 | 0.00 | 0.00 | 51 | 1011.7 |
| 20260503042518 | 48 | 210 | 2.0 | 4.0 | 0.00 | 0.00 | 0.00 | 54 | 1011.9 |
| 20260503041506 | 48 | 222 | 2.0 | 4.0 | 0.00 | 0.00 | 0.00 | 53 | 1012.0 |
| 20260503040458 | 47 | 218 | 2.0 | 5.0 | 0.00 | 0.00 | 0.00 | 55 | 1012.1 |
| 20260503035448 | 47 | 227 | 2.0 | 3.0 | 0.00 | 0.00 | 0.00 | 55 | 1012.1 |
| 20260503034445 | 47 | 224 | 2.0 | 5.0 | 0.00 | 0.00 | 0.00 | 55 | 1012.2 |
| 20260503033446 | 47 | 232 | 1.0 | 3.0 | 0.00 | 0.00 | 0.00 | 52 | 1012.3 |
| 20260503032515 | 48 | 190 | 2.0 | 4.0 | 0.00 | 0.00 | 0.00 | 49 | 1012.3 |
| 20260503031527 | 48 | 182 | 1.0 | 4.0 | 0.00 | 0.00 | 0.00 | 48 | 1012.4 |
| 20260503030519 | 48 | 201 | 2.0 | 3.0 | 0.00 | 0.00 | 0.00 | 48 | 1012.5 |
| 20260503025449 | 49 | 186 | 1.0 | 3.0 | 0.00 | 0.00 | 0.00 | 48 | 1012.6 |
| 20260503024446 | 49 | 197 | 1.0 | 2.0 | 0.00 | 0.00 | 0.00 | 46 | 1012.6 |
| 20260503023446 | 49 | 197 | 1.0 | 2.0 | 0.00 | 0.00 | 0.00 | 45 | 1012.6 |
| 20260503022516 | 50 | 212 | 1.0 | 3.0 | 0.00 | 0.00 | 0.00 | 45 | 1012.6 |
| 20260503021508 | 50 | 187 | 0.0 | 2.0 | 0.00 | 0.00 | 0.00 | 44 | 1012.6 |
| 20260503020519 | 50 | 190 | 1.0 | 2.0 | 0.00 | 0.00 | 0.00 | 45 | 1012.6 |
| 20260503015446 | 51 | 194 | 1.0 | 2.0 | 0.00 | 0.00 | 0.00 | 45 | 1012.5 |
| 20260503014527 | 51 | 194 | 1.0 | 2.0 | 0.00 | 0.00 | 0.00 | 45 | 1012.5 |
| 20260503013447 | 52 | 196 | 2.0 | 3.0 | 0.00 | 0.00 | 0.00 | 43 | 1012.4 |
| 20260503012538 | 53 | 217 | 0.0 | 1.0 | 0.00 | 0.00 | 0.00 | 41 | 1012.4 |
| 20260503011507 | 54 | 237 | 1.0 | 2.0 | 0.00 | 0.00 | 0.00 | 38 | 1012.3 |
| 20260503010457 | 55 | 280 | 1.0 | 3.0 | 0.00 | 0.00 | 0.00 | 36 | 1012.3 |
| 20260503005448 | 55 | 274 | 2.0 | 3.0 | 0.00 | 0.00 | 0.00 | 35 | 1012.3 |
| 20260503004445 | 57 | 277 | 2.0 | 5.0 | 0.00 | 0.00 | 0.00 | 33 | 1012.3 |
| 20260503003446 | 57 | 277 | 3.0 | 5.0 | 0.00 | 0.00 | 0.00 | 31 | 1012.3 |
| 20260503002518 | 59 | 271 | 3.0 | 6.0 | 0.00 | 0.00 | 0.00 | 30 | 1012.2 |
| 20260503001529 | 59 | 267 | 3.0 | 5.0 | 0.00 | 0.00 | 0.00 | 26 | 1012.2 |
| 20260503000500 | 59 | 266 | 3.0 | 5.0 | 0.00 | 0.00 | 0.00 | 28 | 1012.4 |
| 20260502235452 | 59 | 278 | 3.0 | 6.0 | 0.00 | 0.00 | 0.00 | 29 | 1012.4 |
| 20260502234449 | 59 | 273 | 3.0 | 7.0 | 0.00 | 0.00 | 0.00 | 27 | 1012.5 |
| 20260502233509 | 59 | 256 | 2.0 | 4.0 | 0.00 | 0.00 | 0.00 | 27 | 1012.6 |
| 20260502232536 | 59 | 275 | 4.0 | 8.0 | 0.00 | 0.00 | 0.00 | 26 | 1012.6 |
| 20260502231510 | 60 | 266 | 4.0 | 7.0 | 0.00 | 0.00 | 0.00 | 22 | 1012.6 |
| 20260502230502 | 60 | 276 | 5.0 | 9.0 | 0.00 | 0.00 | 0.00 | 23 | 1012.6 |
| 20260502225450 | 60 | 283 | 4.0 | 8.0 | 0.00 | 0.00 | 0.00 | 21 | 1012.8 |
| 20260502224450 | 60 | 294 | 5.0 | 9.0 | 0.00 | 0.00 | 0.00 | 24 | 1012.8 |
| 20260502223450 | 60 | 264 | 3.0 | 7.0 | 0.00 | 0.00 | 0.00 | 23 | 1013.0 |
| 20260502222517 | 59 | 297 | 4.0 | 7.0 | 0.00 | 0.00 | 0.00 | 25 | 1013.0 |
| 20260502221511 | 60 | 286 | 5.0 | 9.0 | 0.00 | 0.00 | 0.00 | 23 | 1013.0 |
| 20260502220502 | 59 | 300 | 3.0 | 5.0 | 0.00 | 0.00 | 0.00 | 23 | 1013.1 |
| 20260502215450 | 60 | 282 | 5.0 | 11.0 | 0.00 | 0.00 | 0.00 | 23 | 1013.2 |
| 20260502214452 | 60 | 282 | 4.0 | 7.0 | 0.00 | 0.00 | 0.00 | 22 | 1013.3 |
| 20260502213451 | 61 | 275 | 7.0 | 13.0 | 0.00 | 0.00 | 0.00 | 21 | 1013.4 |
| 20260502212451 | 60 | 302 | 5.0 | 9.0 | 0.00 | 0.00 | 0.00 | 22 | 1013.5 |
| 20260502211530 | 60 | 271 | 3.0 | 6.0 | 0.00 | 0.00 | 0.00 | 22 | 1013.7 |
| 20260502210500 | 59 | 296 | 3.0 | 7.0 | 0.00 | 0.00 | 0.00 | 23 | 1013.8 |
| 20260502205451 | 59 | 295 | 3.0 | 5.0 | 0.00 | 0.00 | 0.00 | 22 | 1014.0 |
| 20260502204449 | 59 | 15 | 1.0 | 3.0 | 0.00 | 0.00 | 0.00 | 22 | 1014.1 |
| 20260502203448 | 59 | 343 | 2.0 | 4.0 | 0.00 | 0.00 | 0.00 | 23 | 1014.4 |
| 20260502202449 | 58 | 338 | 2.0 | 8.0 | 0.00 | 0.00 | 0.00 | 24 | 1014.5 |
| 20260502201511 | 58 | 34 | 3.0 | 7.0 | 0.00 | 0.00 | 0.00 | 24 | 1014.6 |
| 20260502200501 | 59 | 244 | 5.0 | 9.0 | 0.00 | 0.00 | 0.00 | 23 | 1014.6 |
| 20260502195512 | 58 | 249 | 3.0 | 6.0 | 0.00 | 0.00 | 0.00 | 24 | 1014.9 |
| 20260502194452 | 58 | 308 | 2.0 | 7.0 | 0.00 | 0.00 | 0.00 | 23 | 1015.2 |
| 20260502193450 | 57 | 301 | 3.0 | 7.0 | 0.00 | 0.00 | 0.00 | 26 | 1015.2 |
| 20260502192450 | 56 | 287 | 3.0 | 7.0 | 0.00 | 0.00 | 0.00 | 26 | 1015.4 |
| 20260502191511 | 57 | 283 | 3.0 | 8.0 | 0.00 | 0.00 | 0.00 | 25 | 1015.6 |
| 20260502190459 | 57 | 322 | 3.0 | 6.0 | 0.00 | 0.00 | 0.00 | 24 | 1015.7 |
| 20260502185450 | 57 | 296 | 6.0 | 9.0 | 0.00 | 0.00 | 0.00 | 28 | 1015.8 |
| 20260502184447 | 57 | 232 | 3.0 | 7.0 | 0.00 | 0.00 | 0.00 | 25 | 1015.8 |
| 20260502183508 | 57 | 288 | 4.0 | 9.0 | 0.00 | 0.00 | 0.00 | 24 | 1016.0 |
| 20260502182448 | 57 | 242 | 3.0 | 8.0 | 0.00 | 0.00 | 0.00 | 26 | 1016.1 |
| 20260502181532 | 56 | 32 | 2.0 | 5.0 | 0.00 | 0.00 | 0.00 | 26 | 1016.4 |
| 20260502180501 | 55 | 273 | 2.0 | 7.0 | 0.00 | 0.00 | 0.00 | 28 | 1016.5 |